Home   Weather   Mayen   Past weeks

Flag for Germany Past Weather in Mayen, Rhineland-Palatinate, Germany — Yesterday and Last 2 Weeks

45 °F


Feels Like: 43 °F
Forecast: 40 / 54 °F
Wind: 3 mph from North

Location: Buechel

Current Time: Oct 26, 2016 at 11:36:20 AM

Latest Report: Oct 26, 2016 at 10:20 AM

Visibility: 1 mi

Pressure: 30.36 "Hg

Humidity: 100%

Dew Point: 45 °F

Location of MayenLocation

Past Weather in Mayen — Graph


Mayen Temperature Yesterday

Maximum temperature yesterday: 52 °F (at 2:20 PM)
Minimum temperature yesterday: 46 °F (at 8:48 AM)
Average temperature yesterday: 49 °F

High & Low Weather Summary for the Past Weeks

High61 °F (Oct 16, 3:20 PM)100% (Oct 12, 9:20 AM)30.36 "Hg (Oct 12, 9:20 AM)
Low37 °F (Oct 23, 5:20 AM)54% (Oct 11, 2:20 PM)29.68 "Hg (Oct 14, 5:20 PM)
Average45 °F93%29.99 "Hg
* Reported Oct 11 10:20 AM — Oct 26 10:20 AM, Mayen, Weather by CustomWeather, © 2016

Note: Actual official high and low records may vary slightly from our data, if they occured in-between our weather recording intervals... More about our weather records


Mayen Weather History for the Previous 24 Hours

Scroll right to see more
Time TempWeatherWind HumidityBarometerVisibility
10:20 AM
Wed, Oct 26
45 °FFog.3 mph100%30.36 "Hg1 mi
9:20 AM45 °FFog.3 mph100%30.33 "Hg1 mi
8:20 AM45 °FFog.3 mph100%30.33 "Hg1 mi
6:20 AM43 °FFog.3 mph100%30.30 "Hg1 mi
5:20 AM45 °FFog.3 mph93%30.30 "Hg1 mi
4:20 AM45 °FQuite cool.5 mph100%30.30 "Hg2 mi
3:20 AM45 °FQuite cool.5 mph100%30.30 "Hg1 mi
2:20 AM45 °FQuite cool.3 mph100%30.30 "Hg1 mi
1:20 AM45 °FQuite cool.6 mph100%30.30 "Hg1 mi
12:20 AM45 °FQuite cool.5 mph100%30.30 "Hg0 mi
11:20 PM
Tue, Oct 25
46 °FCool.6 mph100%30.30 "Hg0 mi
10:20 PM46 °FCool.6 mph100%30.27 "Hg0 mi
9:20 PM46 °FCool.5 mph100%30.27 "Hg0 mi
8:20 PM46 °FCool.5 mph100%30.27 "Hg0 mi
7:20 PM48 °FFog.6 mph100%30.24 "Hg1 mi
6:20 PM50 °FFog.3 mph94%30.24 "Hg1 mi
5:57 PM50 °FFog.5 mph94%30.24 "Hg2 mi
5:20 PM50 °FPartly sunny.6 mph94%30.21 "HgN/A
4:20 PM50 °FPartly sunny.7 mph94%30.21 "HgN/A
3:20 PM52 °FMore clouds than sun.5 mph88%30.18 "HgN/A
2:20 PM52 °FMore clouds than sun.5 mph88%30.18 "HgN/A
1:20 PM50 °FMore clouds than sun.6 mph94%30.18 "HgN/A
12:20 PM50 °FBroken clouds.5 mph94%30.18 "HgN/A
11:20 AM48 °FBroken clouds.6 mph100%30.18 "Hg5 mi
Weather by CustomWeather, © 2016

See weather overviewHow to use our weather pages